JAIKM RJTH-RJGG

Flight info

Callsign JAIKM
Flight time 0h 47m
Altitude 41000
Route TOPIT Y87 BAFFY TRIKE
Aircraft HDJT/L-SABDGRWY/H

Departure

Time 2026-04-26 19:45
Airport Hachijojima Airport (RJTH)

Arrival

Time 2026-04-26 20:32
Airport Chubu Centrair International Airport (RJGG)
Time Latitude Longitude Altitude Speed Heading
2026-04-26 19:31 33.11591 139.78277 286 ft 0 kts 341°
2026-04-26 19:39 33.11592 139.78271 287 ft 2 kts 229°
2026-04-26 19:39 33.11564 139.78286 287 ft 4 kts 175°
2026-04-26 19:40 33.11547 139.78289 288 ft 2 kts 155°
2026-04-26 19:40 33.11528 139.78325 288 ft 9 kts 130°
2026-04-26 19:40 33.11518 139.78333 288 ft 0 kts 159°
2026-04-26 19:42 33.11514 139.78335 289 ft 3 kts 159°
2026-04-26 19:42 33.11457 139.78349 287 ft 11 kts 194°
2026-04-26 19:42 33.11411 139.78264 290 ft 15 kts 249°
2026-04-26 19:43 33.11369 139.78130 287 ft 19 kts 249°
2026-04-26 19:43 33.11319 139.77973 287 ft 19 kts 249°
2026-04-26 19:43 33.11274 139.77828 287 ft 20 kts 249°
2026-04-26 19:43 33.11239 139.77671 286 ft 14 kts 256°
2026-04-26 19:44 33.11220 139.77658 286 ft 3 kts 94°
2026-04-26 19:44 33.11233 139.77697 286 ft 10 kts 69°
2026-04-26 19:44 33.11327 139.77996 287 ft 79 kts 69°
2026-04-26 19:44 33.11598 139.78892 393 ft 131 kts 80°
2026-04-26 19:45 33.11992 139.79877 894 ft 136 kts 74°
2026-04-26 19:45 33.12546 139.80904 1284 ft 159 kts 69°
2026-04-26 19:45 33.13140 139.82053 1682 ft 168 kts 73°
2026-04-26 19:45 33.13734 139.83364 1861 ft 197 kts 73°
2026-04-26 19:46 33.14645 139.84806 2030 ft 242 kts 44°
2026-04-26 19:46 33.16270 139.85701 2340 ft 269 kts 13°
2026-04-26 19:46 33.18133 139.86037 3028 ft 271 kts
2026-04-26 19:46 33.20022 139.86263 3665 ft 276 kts
2026-04-26 19:47 33.22023 139.86495 3833 ft 302 kts
2026-04-26 19:47 33.23430 139.86684 4075 ft 309 kts
2026-04-26 19:47 33.26296 139.87080 4927 ft 311 kts
2026-04-26 19:47 33.28425 139.87356 5545 ft 312 kts
2026-04-26 19:48 33.30586 139.87636 6171 ft 313 kts
2026-04-26 19:48 33.32758 139.87929 6720 ft 316 kts
2026-04-26 19:48 33.34943 139.88218 7388 ft 313 kts
2026-04-26 19:48 33.37124 139.88498 7970 ft 316 kts
2026-04-26 19:49 33.39321 139.88789 8604 ft 317 kts
2026-04-26 19:49 33.41522 139.89084 9160 ft 321 kts
2026-04-26 19:49 33.43741 139.89379 9788 ft 322 kts
2026-04-26 19:49 33.45975 139.89675 10323 ft 325 kts
2026-04-26 19:50 33.48300 139.89977 10378 ft 347 kts
2026-04-26 19:50 33.50716 139.90299 10831 ft 349 kts
2026-04-26 19:50 33.53106 139.90624 11352 ft 350 kts
2026-04-26 19:50 33.55530 139.90944 11836 ft 352 kts
2026-04-26 19:51 33.57984 139.91267 12255 ft 356 kts
2026-04-26 19:51 33.60455 139.91596 12739 ft 358 kts
2026-04-26 19:51 33.62949 139.91930 13219 ft 360 kts
2026-04-26 19:51 33.65448 139.92263 13686 ft 362 kts
2026-04-26 19:52 33.67966 139.92597 14085 ft 365 kts
2026-04-26 19:52 33.70499 139.92935 14469 ft 367 kts
2026-04-26 19:52 33.73044 139.93274 14863 ft 369 kts
2026-04-26 19:52 33.75580 139.93613 15249 ft 372 kts
2026-04-26 19:53 33.78164 139.93958 15637 ft 374 kts
2026-04-26 19:53 33.80760 139.94305 16018 ft 376 kts
2026-04-26 19:53 33.83367 139.94653 16402 ft 378 kts
2026-04-26 19:53 33.85997 139.95005 16773 ft 380 kts
2026-04-26 19:54 33.88633 139.95358 17146 ft 382 kts
2026-04-26 19:54 33.91285 139.95713 17514 ft 384 kts
2026-04-26 19:54 33.93954 139.96071 17870 ft 387 kts 360°
2026-04-26 19:54 33.96638 139.96430 18213 ft 389 kts 360°
2026-04-26 19:55 33.99341 139.96792 18467 ft 394 kts
2026-04-26 19:55 34.02074 139.97161 18769 ft 395 kts
2026-04-26 19:55 34.04773 139.97528 19087 ft 396 kts
2026-04-26 19:55 34.07505 139.97894 19584 ft 391 kts
2026-04-26 19:56 34.10201 139.98255 20038 ft 390 kts
2026-04-26 19:56 34.12894 139.98616 20450 ft 389 kts
2026-04-26 19:56 34.15592 139.98980 20890 ft 389 kts
2026-04-26 19:56 34.18303 139.99340 21123 ft 396 kts
2026-04-26 19:57 34.21057 139.99300 21310 ft 394 kts 348°
2026-04-26 19:57 34.23777 139.98928 21735 ft 393 kts 347°
2026-04-26 19:57 34.26417 139.98240 22161 ft 384 kts 335°
2026-04-26 19:57 34.28858 139.97027 22611 ft 376 kts 325°
2026-04-26 19:58 34.31019 139.95395 23105 ft 367 kts 315°
2026-04-26 19:58 34.32917 139.93380 23459 ft 363 kts 306°
2026-04-26 19:58 34.34518 139.90997 23465 ft 366 kts 297°
2026-04-26 19:58 34.35780 139.88313 23523 ft 367 kts 288°
2026-04-26 19:59 34.36654 139.85441 23781 ft 360 kts 279°
2026-04-26 19:59 34.37200 139.82501 24046 ft 357 kts 276°
2026-04-26 19:59 34.37723 139.79587 24330 ft 357 kts 276°
2026-04-26 19:59 34.38263 139.76617 24623 ft 357 kts 276°
2026-04-26 20:00 34.38779 139.73719 24919 ft 356 kts 275°
2026-04-26 20:00 34.39294 139.70791 25222 ft 355 kts 275°
2026-04-26 20:00 34.39813 139.67871 25537 ft 355 kts 275°
2026-04-26 20:00 34.40334 139.64943 25864 ft 354 kts 275°
2026-04-26 20:01 34.40850 139.62033 26199 ft 353 kts 275°
2026-04-26 20:01 34.41363 139.59123 26523 ft 353 kts 275°
2026-04-26 20:01 34.41877 139.56213 26876 ft 352 kts 274°
2026-04-26 20:01 34.42387 139.53320 27225 ft 351 kts 274°
2026-04-26 20:02 34.42897 139.50428 27554 ft 350 kts 274°
2026-04-26 20:02 34.43404 139.47543 27892 ft 350 kts 274°
2026-04-26 20:02 34.43909 139.44660 28343 ft 348 kts 273°
2026-04-26 20:02 34.44243 139.42757 28634 ft 347 kts 273°
2026-04-26 20:03 34.44906 139.38971 29213 ft 346 kts 273°
2026-04-26 20:03 34.45404 139.36123 29644 ft 345 kts 273°
2026-04-26 20:03 34.45898 139.33292 30042 ft 343 kts 272°
2026-04-26 20:03 34.46393 139.30448 30396 ft 342 kts 272°
2026-04-26 20:04 34.46885 139.27623 30736 ft 342 kts 272°
2026-04-26 20:04 34.47374 139.24808 31075 ft 341 kts 271°
2026-04-26 20:04 34.47862 139.21997 31444 ft 339 kts 271°
2026-04-26 20:04 34.48340 139.19240 31793 ft 338 kts 271°
2026-04-26 20:05 34.48823 139.16446 32134 ft 337 kts 270°
2026-04-26 20:05 34.49304 139.13658 32472 ft 336 kts 270°
2026-04-26 20:05 34.49782 139.10888 32800 ft 335 kts 269°
2026-04-26 20:05 34.50259 139.08120 33107 ft 336 kts 270°
2026-04-26 20:06 34.50735 139.05327 33272 ft 340 kts 270°
2026-04-26 20:06 34.51213 139.02558 33585 ft 339 kts 270°
2026-04-26 20:06 34.51697 138.99757 33887 ft 338 kts 269°
2026-04-26 20:06 34.52175 138.96965 34172 ft 337 kts 269°
2026-04-26 20:07 34.52649 138.94192 34472 ft 335 kts 269°
2026-04-26 20:07 34.53120 138.91431 34760 ft 333 kts 268°
2026-04-26 20:07 34.53589 138.88682 35019 ft 332 kts 268°
2026-04-26 20:07 34.54050 138.85976 34929 ft 332 kts 268°
2026-04-26 20:08 34.54993 138.80361 34925 ft 347 kts 269°
2026-04-26 20:08 34.55990 138.74517 34927 ft 358 kts 269°
2026-04-26 20:09 34.56997 138.68553 34931 ft 367 kts 269°
2026-04-26 20:09 34.58031 138.62419 34923 ft 374 kts 269°
2026-04-26 20:10 34.58553 138.59303 34792 ft 381 kts 269°
2026-04-26 20:10 34.59081 138.56106 34313 ft 393 kts 269°
2026-04-26 20:10 34.59635 138.52810 33792 ft 399 kts 269°
2026-04-26 20:10 34.60199 138.49507 33240 ft 399 kts 270°
2026-04-26 20:11 34.60752 138.46201 32711 ft 400 kts 270°
2026-04-26 20:11 34.61292 138.42921 32195 ft 401 kts 270°
2026-04-26 20:11 34.61845 138.39573 31656 ft 406 kts 270°
2026-04-26 20:12 34.62970 138.32833 30583 ft 408 kts 271°
2026-04-26 20:12 34.63527 138.29449 30045 ft 409 kts 271°
2026-04-26 20:12 34.64087 138.26051 29467 ft 409 kts 272°
2026-04-26 20:12 34.64625 138.22679 28903 ft 402 kts 269°
2026-04-26 20:13 34.64788 138.19394 28271 ft 385 kts 260°
2026-04-26 20:13 34.64460 138.16175 27245 ft 380 kts 252°
2026-04-26 20:13 34.63857 138.13082 26105 ft 374 kts 250°
2026-04-26 20:13 34.63243 138.10026 25052 ft 370 kts 252°
2026-04-26 20:14 34.62827 138.06991 24036 ft 369 kts 259°
2026-04-26 20:14 34.62637 138.03885 22924 ft 367 kts 262°
2026-04-26 20:14 34.62442 138.00816 22157 ft 358 kts 259°
2026-04-26 20:14 34.62127 137.97804 21773 ft 362 kts 258°
2026-04-26 20:15 34.61905 137.95797 21590 ft 360 kts 258°
2026-04-26 20:15 34.61616 137.92772 21178 ft 359 kts 259°
2026-04-26 20:15 34.61360 137.89765 20712 ft 356 kts 259°
2026-04-26 20:15 34.61084 137.86783 20239 ft 354 kts 259°
2026-04-26 20:16 34.60794 137.83832 19777 ft 351 kts 258°
2026-04-26 20:16 34.60513 137.80893 19314 ft 349 kts 259°
2026-04-26 20:16 34.60238 137.77952 18848 ft 351 kts 259°
2026-04-26 20:16 34.59963 137.75041 18395 ft 350 kts 259°
2026-04-26 20:17 34.59683 137.72112 17913 ft 347 kts 259°
2026-04-26 20:17 34.59405 137.69218 17435 ft 343 kts 259°
2026-04-26 20:17 34.59132 137.66353 16983 ft 340 kts 259°
2026-04-26 20:17 34.58859 137.63518 16541 ft 337 kts 259°
2026-04-26 20:18 34.58589 137.60707 16096 ft 332 kts 259°
2026-04-26 20:18 34.58322 137.57943 15660 ft 327 kts 259°
2026-04-26 20:18 34.58058 137.55225 15227 ft 322 kts 259°
2026-04-26 20:18 34.57797 137.52531 14800 ft 319 kts 259°
2026-04-26 20:19 34.57538 137.49869 14377 ft 316 kts 259°
2026-04-26 20:19 34.57282 137.47236 13961 ft 313 kts 259°
2026-04-26 20:19 34.57030 137.44658 13550 ft 310 kts 259°
2026-04-26 20:19 34.56777 137.42075 13119 ft 307 kts 259°
2026-04-26 20:20 34.56525 137.39514 12713 ft 305 kts 259°
2026-04-26 20:20 34.56276 137.36971 12309 ft 299 kts 260°
2026-04-26 20:20 34.56039 137.34536 11922 ft 283 kts 260°
2026-04-26 20:20 34.55810 137.32225 11558 ft 272 kts 260°
2026-04-26 20:21 34.55585 137.29967 11205 ft 264 kts 260°
2026-04-26 20:21 34.55373 137.27813 10865 ft 250 kts 260°
2026-04-26 20:21 34.55168 137.25756 10541 ft 241 kts 260°
2026-04-26 20:21 34.54969 137.23765 10236 ft 235 kts 260°
2026-04-26 20:22 34.54772 137.21796 9937 ft 235 kts 261°
2026-04-26 20:22 34.54578 137.19852 9632 ft 235 kts 261°
2026-04-26 20:22 34.54382 137.17885 9307 ft 234 kts 261°
2026-04-26 20:22 34.54186 137.15929 9005 ft 233 kts 261°
2026-04-26 20:23 34.53990 137.13975 8702 ft 233 kts 261°
2026-04-26 20:23 34.53793 137.12020 8398 ft 233 kts 261°
2026-04-26 20:23 34.53598 137.10078 8095 ft 232 kts 260°
2026-04-26 20:23 34.53402 137.08135 7767 ft 232 kts 261°
2026-04-26 20:24 34.53207 137.06196 7437 ft 231 kts 261°
2026-04-26 20:24 34.53011 137.04261 7111 ft 231 kts 261°
2026-04-26 20:24 34.52816 137.02333 6830 ft 229 kts 261°
2026-04-26 20:24 34.52624 137.00438 6554 ft 229 kts 260°
2026-04-26 20:25 34.52429 136.98519 6285 ft 229 kts 260°
2026-04-26 20:25 34.52298 136.97244 6102 ft 229 kts 262°
2026-04-26 20:25 34.52068 136.94670 5722 ft 229 kts 268°
2026-04-26 20:25 34.52272 136.92747 5451 ft 232 kts 283°
2026-04-26 20:26 34.52887 136.90940 5184 ft 234 kts 297°
2026-04-26 20:26 34.53891 136.89386 4987 ft 235 kts 314°
2026-04-26 20:26 34.55203 136.88185 4845 ft 243 kts 329°
2026-04-26 20:26 34.56812 136.87510 4616 ft 246 kts 345°
2026-04-26 20:27 34.58480 136.87051 4374 ft 244 kts 346°
2026-04-26 20:27 34.60135 136.86648 4130 ft 240 kts 348°
2026-04-26 20:27 34.61788 136.86277 4011 ft 243 kts 349°
2026-04-26 20:27 34.63446 136.85902 4013 ft 245 kts 348°
2026-04-26 20:28 34.65122 136.85480 4014 ft 248 kts 350°
2026-04-26 20:28 34.66801 136.85105 3855 ft 248 kts 351°
2026-04-26 20:28 34.68486 136.84718 3513 ft 244 kts 351°
2026-04-26 20:28 34.70133 136.84306 3170 ft 239 kts 350°
2026-04-26 20:29 34.71754 136.83893 2823 ft 235 kts 351°
2026-04-26 20:29 34.73299 136.83564 2499 ft 208 kts 352°
2026-04-26 20:29 34.74688 136.83205 2201 ft 203 kts 351°
2026-04-26 20:29 34.76038 136.82870 1909 ft 195 kts 352°
2026-04-26 20:30 34.77326 136.82551 1709 ft 182 kts 349°
2026-04-26 20:30 34.78518 136.82252 1453 ft 169 kts 351°
2026-04-26 20:30 34.79638 136.81976 1185 ft 160 kts 351°
2026-04-26 20:30 34.80709 136.81726 914 ft 153 kts 351°
2026-04-26 20:31 34.81732 136.81495 662 ft 141 kts 349°
2026-04-26 20:31 34.82600 136.81306 467 ft 117 kts 348°
2026-04-26 20:31 34.83372 136.81123 280 ft 108 kts 348°
2026-04-26 20:31 34.84100 136.80945 111 ft 106 kts 350°
2026-04-26 20:32 34.84813 136.80774 31 ft 100 kts 350°
2026-04-26 20:32 34.85419 136.80636 20 ft 80 kts 349°
2026-04-26 20:32 34.85863 136.80532 20 ft 36 kts 349°
2026-04-26 20:32 34.86089 136.80490 21 ft 25 kts
2026-04-26 20:33 34.86204 136.80515 22 ft 16 kts 16°
2026-04-26 20:33 34.86327 136.80567 22 ft 22 kts 19°
2026-04-26 20:33 34.86477 136.80625 22 ft 22 kts
2026-04-26 20:33 34.86625 136.80594 23 ft 21 kts 349°
2026-04-26 20:34 34.86770 136.80559 22 ft 21 kts 347°
2026-04-26 20:34 34.86911 136.80525 22 ft 20 kts 349°
2026-04-26 20:34 34.87049 136.80492 22 ft 20 kts 348°
2026-04-26 20:34 34.87184 136.80459 22 ft 20 kts 348°
2026-04-26 20:35 34.87276 136.80439 22 ft 11 kts 350°
2026-04-26 20:35 34.87353 136.80419 22 ft 11 kts 347°
2026-04-26 20:35 34.87418 136.80446 22 ft 11 kts 65°
2026-04-26 20:35 34.87435 136.80533 23 ft 11 kts 79°
2026-04-26 20:36 34.87468 136.80599 23 ft 8 kts 38°
2026-04-26 20:36 34.87505 136.80648 23 ft 8 kts 78°
2026-04-26 20:36 34.87512 136.80691 23 ft 3 kts 78°
2026-04-26 20:36 34.87514 136.80700 23 ft 0 kts 78°